Home   Weather   Syktyvkar   Past weeks

Flag for Russia Past Weather in Syktyvkar, Russia — Yesterday and Last 2 Weeks

Now
46 °F

Sprinkles. Partly sunny.


Feels Like: 45 °F
Forecast: 46 / 55 °F
Wind: 3 mph from South

Location: Syktyvkar Airport

Current Time: Aug 30, 2016 at 2:10:28 PM

Latest Report: Aug 30, 2016 at 1:30 PM


Visibility: N/A

Pressure: 29.95 "Hg

Humidity: 87%

Dew Point: 43 °F

Location of SyktyvkarLocation

Past Weather in Syktyvkar — Graph

°F

Syktyvkar Temperature Yesterday

Maximum temperature yesterday: 55 °F (at 12:30 PM)
Minimum temperature yesterday: 41 °F (at 4:30 AM)
Average temperature yesterday: 48 °F

High & Low Weather Summary for the Past Weeks

 TemperatureHumidityPressure
High86 °F (Aug 21, 1:00 PM)100% (Aug 17, 12:30 AM)30.42 "Hg (Aug 17, 12:30 AM)
Low41 °F (Aug 29, 4:30 AM)40% (Aug 21, 1:00 PM)29.30 "Hg (Aug 28, 9:00 AM)
Average63 °F81%30.05 "Hg
* Reported Aug 15 12:00 PM — Aug 30 12:30 PM, Syktyvkar, Weather by CustomWeather, © 2016

Note: Actual official high and low records may vary slightly from our data, if they occured in-between our weather recording intervals... More about our weather records

Advertising

Syktyvkar Weather History for the Previous 24 Hours

Scroll right to see more
 ConditionsComfort  
Time TempWeatherWind HumidityBarometerVisibility
12:30 PM
Tue, Aug 30
50 °FSprinkles. Partly sunny.6 mph82%29.95 "HgN/A
12:00 PM50 °FScattered clouds.3 mph76%29.95 "HgN/A
11:30 AM50 °FScattered clouds.6 mph76%29.98 "HgN/A
11:00 AM50 °FSunny.6 mph76%29.98 "Hg10 mi
10:00 AM48 °FSunny.3 mph82%30.01 "Hg10 mi
9:00 AM48 °FClear.3 mph87%30.01 "HgN/A
8:30 AM46 °FClear.6 mph93%30.01 "HgN/A
8:00 AM46 °FClear.3 mph93%30.04 "HgN/A
7:30 AM45 °FClear.3 mph93%30.01 "HgN/A
7:00 AM45 °FClear.3 mph93%30.04 "HgN/A
6:30 AM43 °FClear.3 mph93%30.04 "HgN/A
6:00 AM43 °FScattered clouds.3 mph93%30.04 "HgN/A
5:30 AM41 °FScattered clouds.3 mph100%30.04 "HgN/A
5:00 AM41 °FScattered clouds.3 mph93%30.07 "HgN/A
3:00 AM41 °FPassing clouds.3 mph93%30.07 "HgN/A
2:30 AM41 °FClear.3 mph93%30.07 "Hg10 mi
2:00 AM41 °FClear.3 mph93%30.07 "Hg10 mi
1:30 AM41 °FClear.6 mph93%30.07 "Hg10 mi
1:00 AM41 °FClear.6 mph93%30.07 "Hg10 mi
12:30 AM41 °FClear.3 mph93%30.07 "Hg10 mi
12:00 AM43 °FClear.6 mph87%30.07 "Hg10 mi
11:30 PM
Mon, Aug 29
46 °FPassing clouds.3 mph82%30.07 "HgN/A
11:00 PM46 °FClear.6 mph82%30.07 "Hg10 mi
10:30 PM46 °FClear.3 mph82%30.07 "Hg10 mi
10:00 PM43 °FClear.3 mph93%30.07 "Hg10 mi
9:30 PM43 °FClear.6 mph93%30.07 "Hg10 mi
9:00 PM45 °FPassing clouds.3 mph87%30.04 "HgN/A
8:30 PM46 °FClear.3 mph82%30.04 "Hg10 mi
8:00 PM48 °FClear.3 mph82%30.04 "Hg10 mi
7:30 PM50 °FClear.3 mph76%30.04 "Hg10 mi
7:00 PM50 °FClear.3 mph76%30.01 "Hg10 mi
6:30 PM52 °FSunny.3 mph72%30.01 "Hg10 mi
6:00 PM52 °FPassing clouds.3 mph67%30.01 "HgN/A
5:30 PM54 °FPassing clouds.6 mph63%30.01 "HgN/A
5:00 PM55 °FScattered clouds.3 mph63%30.01 "HgN/A
4:30 PM54 °FScattered clouds.6 mph67%30.01 "HgN/A
4:00 PM54 °FScattered clouds.6 mph67%30.01 "HgN/A
3:30 PM54 °FPartly sunny.6 mph63%30.01 "HgN/A
3:00 PM55 °FPartly sunny.8 mph59%29.98 "HgN/A
2:30 PM55 °FPartly sunny.6 mph55%29.98 "HgN/A
2:00 PM54 °FPartly sunny.6 mph58%29.98 "HgN/A
Weather by CustomWeather, © 2016

See weather overviewHow to use our weather pages